User: anonymous   Login
Location: Charlottesville
(38.0290°N, 78.4770°W)
Time: 20:22:49
(UTC-04:00)
Language:

N. Korean satellite - Orbit

View from above orbital plane
View from above orbital plane
View from above satellite
View from above satellite

Ground track
Ground track

The orbit data is extracted from the following two-line orbital elements,

1 39026U 12072A   17290.39684237  .00001936  00000-0  76378-4 0  9997
2 39026  97.2198 304.0677 0041961 103.6570 256.9347 15.25924254268627
Epoch (UTC): 17 October 2017 09:31:27
Eccentricity: 0.0041961
inclination: 97.2198°
perigee height: 459 km
apogee height: 517 km
right ascension of ascending node: 304.0677°
argument of perigee: 103.6570°
revolutions per day: 15.25924254
mean anomaly at epoch: 256.9347°
orbit number at epoch: 26862

The dashed part of the orbit path shows where the satellite is in the earth's shadow,  

DLR